[[{"header":{"parameterUnit":"m.s-1","parameterCategory":1,"la1":30.2991,"la2":30.254,"lo1":-89.0895,"lo2":-89.0444,"dy":0.0017,"dx":0.0017,"nx":28,"ny":28,"refTime":"2023-09-16T21:00:00:Z","depth":0,"parameterNumber":2,"parameterNumberName":"U-component_of_WINDS"},"data":[0,0,0,0,0,0,0,0,0,0,0,0,0,0,0,0,0,0,0,0,0,0,0,0,0,0,0,0,0,0,0,0,0,0,0,0,0,0,0,0,0,0,0,0,0,0,0,0,0,0,0,0,0,0,0,0,0,0,0.25,0.25,0,0.2508,0.2508,0.2508,0.2427,0.2424,0.2422,0.242,0.2435,0.2438,0.244,0,0,0,0,0,0,0,0,0,0,0,0,0,0.2424,0.2426,0.25,0.25,0.25,0.2508,0.2508,0.2508,0.2427,0.2424,0.2422,0.2419,0.2435,0.2437,0.244,0,0,0,0,0,0,0,0,0,0,0,0,0,0.2447,0.2427,0.25,0.2461,0.2457,0.2508,0.2508,0.2508,0.2428,0.2424,0.2421,0.2418,0.2434,0.2437,0.2441,0.2532,0,0,0.2452,0.2454,0,0,0,0,0,0,0,0,0.2446,0.245,0.2466,0.2464,0.246,0.2463,0.2486,0.2516,0.2428,0.2439,0.242,0.2416,0.2448,0.245,0.2459,0.2532,0.2533,0.2453,0.2455,0.2457,0.2458,0,0,0,0,0,0,0,0.2445,0.2449,0.2503,0.2467,0.2463,0.2445,0.2445,0.2492,0.2463,0.2438,0.2432,0.2434,0.2445,0.2456,0.2459,0.2533,0.2453,0.2456,0.2458,0.246,0.2686,0.2689,0,0,0,0,0,0,0.2447,0.2449,0.2503,0.2504,0.2444,0.2449,0.2449,0.2465,0.2462,0.2458,0.2437,0.243,0.2451,0.2455,0.2459,0.2569,0.2457,0.246,0.2462,0.2682,0.2687,0.2691,0,0,0,0,0,0,0.2446,0.2453,0.2503,0.2474,0.2479,0.2454,0.2473,0.2467,0.2477,0.246,0.2456,0.2452,0.2448,0.2454,0.2515,0.2568,0.2462,0.2465,0.2678,0.2684,0.2689,0.2787,0,0,0,0,0,0,0.2444,0.2453,0.2485,0.2476,0.2481,0.2556,0.2476,0.247,0.2483,0.2475,0.2474,0.2471,0.2446,0.251,0.2518,0.2571,0.2468,0.2673,0.268,0.2687,0.2779,0.2796,0.2809,0,0,0,0,0,0.2442,0.2513,0.2487,0.2494,0.2521,0.2559,0.2563,0.2531,0.2488,0.2522,0.2511,0.2471,0.256,0.2516,0.2526,0.2581,0.267,0.2678,0.2686,0.2772,0.2792,0.2809,0,0,0,0,0,0,0.2533,0.2511,0.2482,0.2552,0.2558,0.2545,0.2588,0.2553,0.2573,0.2564,0.2526,0.2526,0.2595,0.2593,0.2545,0.267,0.2608,0.2618,0.267,0.2689,0.2703,0.2705,0.2471,0,0,0,0,0,0.256,0.259,0.2571,0.2636,0.2639,0.2613,0.2629,0.2603,0.2609,0.2612,0.2605,0.2614,0.2645,0.2666,0.2692,0.2777,0.2778,0.2819,0.2835,0.2847,0.2859,0.2908,0.2927,0.2718,0.2718,0.2718,0,0,0.2619,0.2611,0.2633,0.2654,0.2655,0.2691,0.2616,0.2656,0.2684,0.2618,0.2676,0.2672,0.2679,0.2754,0.2786,0.2755,0.2916,0.2858,0.2868,0.2873,0.2919,0.2939,0.2956,0.2724,0.2723,0.2722,0,0,0.2745,0.274,0.2795,0.2797,0.28,0.2781,0.2795,0.2787,0.2782,0.2838,0.2791,0.2824,0.2875,0.2884,0.2895,0.3025,0.2991,0.3035,0.3116,0.3165,0.3181,0.3196,0.3247,0.3265,0.3045,0.3045,0.3045,0,0.2819,0.2869,0.2828,0.2872,0.2885,0.2824,0.2882,0.2887,0.2899,0.291,0.2873,0.2939,0.2939,0.3017,0.3049,0.3058,0.3075,0.3037,0.3181,0.3195,0.3209,0.3257,0.3276,0.3051,0.305,0.305,0.3049,0,0.2962,0.2997,0.3041,0.3053,0.3069,0.312,0.309,0.3112,0.3085,0.3072,0.3133,0.3131,0.3158,0.3173,0.3147,0.3248,0.3229,0.3187,0.3124,0.3235,0.3281,0.3298,0.3059,0.3057,0.3056,0.3054,0,0,0.3149,0.3136,0.3154,0.316,0.3157,0.3186,0.3234,0.3258,0.328,0.329,0.3334,0.3379,0.334,0.3353,0.3328,0.337,0.3479,0.3323,0.3323,0.3357,0.3596,0.3631,0.3653,0.3453,0.3457,0.3459,0.3597,0,0.3276,0.3357,0.3322,0.3409,0.3443,0.3386,0.3429,0.3434,0.3423,0.3453,0.3441,0.3476,0.342,0.3428,0.3466,0.3458,0.3527,0.3446,0.3499,0.3501,0.3504,0.3676,0.3713,0.3843,0.3614,0.3617,0.3619,0,0.3436,0.3451,0.354,0.3534,0.3547,0.3586,0.3607,0.3634,0.364,0.363,0.3644,0.361,0.3661,0.3594,0.3667,0.3613,0.3632,0.3631,0.3635,0.3644,0.3571,0.3694,0.3883,0.3905,0.3645,0.3643,0.3641,0,0.3571,0.3613,0.3672,0.3678,0.3671,0.3701,0.37,0.3701,0.3719,0.3737,0.3749,0.3774,0.3789,0.381,0.3786,0.3738,0.3864,0.3794,0.3861,0.3863,0.3895,0.3894,0.4095,0.3898,0.3897,0.3897,0.3897,0,0.3719,0.3778,0.3733,0.3771,0.3835,0.3795,0.3861,0.3853,0.3856,0.3894,0.3844,0.3882,0.3843,0.3878,0.3859,0.3925,0.3931,0.3927,0.3923,0.3935,0.3936,0.3951,0.3944,0.3902,0.3901,0.39,0.3899,0,0.3883,0.3854,0.3917,0.3904,0.3902,0.3951,0.3942,0.3978,0.3961,0.401,0.402,0.3997,0.4035,0.401,0.4049,0.4036,0.4125,0.4104,0.4123,0.412,0.419,0.4186,0.4413,0.4443,0.422,0.4222,0.4224,0,0.3983,0.4026,0.4017,0.4038,0.4039,0.4073,0.409,0.4052,0.4073,0.4083,0.4119,0.4152,0.4177,0.4242,0.4231,0.4261,0.4245,0.4322,0.425,0.4263,0.4254,0.4254,0.4261,0.4339,0.4342,0.4344,0.4346,0,0.4165,0.4148,0.4173,0.4195,0.4216,0.4231,0.4243,0.4263,0.4225,0.4251,0.4289,0.4308,0.4347,0.4383,0.4409,0.4411,0.4375,0.4367,0.4386,0.4402,0.4413,0.4414,0.4169,0.4364,0.4362,0.4361,0.436,0.4359,0.4303,0.4341,0.4341,0.4371,0.4375,0.4388,0.4422,0.4409,0.4439,0.4467,0.4442,0.4489,0.4495,0.4526,0.4533,0.4571,0.454,0.4565,0.4573,0.4581,0.4593,0.4402,0.4574,0.4574,0.4573,0.4573,0.4572,0,0.4488,0.4484,0.4512,0.453,0.4555,0.4512,0.4524,0.4549,0.4589,0.4597,0.4622,0.4667,0.4701,0.4692,0.4724,0.4757,0.4741,0.4767,0.4768,0.477,0.4616,0.46,0.478,0.478,0.478,0.4779,0.4779,0.4779,0.4587,0.4649,0.4633,0.4698,0.4695,0.4738,0.4748,0.4761,0.4767,0.4819,0.4846,0.4838,0.4841,0.4873,0.4904,0.49,0.4918,0.4951,0.4943,0.48,0.478,0.4761,0.4746,0.4953,0.4954,0.5094,0.5095,0.5096]},{"header":{"parameterUnit":"m.s-1","parameterCategory":1,"la1":30.2991,"la2":30.254,"lo1":-89.0895,"lo2":-89.0444,"dy":0.0017,"dx":0.0017,"nx":28,"ny":28,"refTime":"2023-09-16T21:00:00:Z","depth":0,"parameterNumber":3,"parameterNumberName":"V-component_of_WINDS"},"data":[0,0,0,0,0,0,0,0,0,0,0,0,0,0,0,0,0,0,0,0,0,0,0,0,0,0,0,0,0,0,0,0,0,0,0,0,0,0,0,0,0,0,0,0,0,0,0,0,0,0,0,0,0,0,0,0,0,0,-2.0931,-2.0932,0,-2.0998,-2.0998,-2.0999,-2.1081,-2.1083,-2.1084,-2.1085,-2.1149,-2.115,-2.115,0,0,0,0,0,0,0,0,0,0,0,0,0,-2.0872,-2.0873,-2.0931,-2.0932,-2.0933,-2.0997,-2.0998,-2.0999,-2.1081,-2.1083,-2.1084,-2.1086,-2.1149,-2.115,-2.115,0,0,0,0,0,0,0,0,0,0,0,0,0,-2.0914,-2.0873,-2.0931,-2.0981,-2.0987,-2.0997,-2.0998,-2.0999,-2.1081,-2.1083,-2.1085,-2.1086,-2.1149,-2.115,-2.1151,-2.1116,0,0,-2.1153,-2.1153,0,0,0,0,0,0,0,0,-2.0911,-2.0916,-2.0973,-2.0978,-2.0984,-2.1033,-2.1001,-2.1038,-2.108,-2.1045,-2.1085,-2.1087,-2.1109,-2.1113,-2.1121,-2.1119,-2.1122,-2.1153,-2.1153,-2.1154,-2.1154,0,0,0,0,0,0,0,-2.0908,-2.0913,-2.0957,-2.0974,-2.098,-2.1,-2.1008,-2.1009,-2.1065,-2.1048,-2.1054,-2.1061,-2.1112,-2.112,-2.1123,-2.1123,-2.1153,-2.1153,-2.1154,-2.1154,-2.1095,-2.1093,0,0,0,0,0,0,-2.0898,-2.091,-2.0955,-2.0959,-2.0952,-2.0999,-2.1008,-2.1015,-2.1065,-2.1075,-2.1059,-2.1065,-2.1118,-2.1122,-2.1126,-2.1088,-2.1154,-2.1154,-2.1155,-2.1097,-2.1095,-2.1093,0,0,0,0,0,0,-2.0897,-2.0901,-2.0952,-2.0937,-2.0945,-2.0998,-2.1005,-2.1016,-2.1024,-2.1074,-2.1084,-2.1057,-2.112,-2.1125,-2.1118,-2.1091,-2.1155,-2.1155,-2.11,-2.1096,-2.1094,-2.1012,0,0,0,0,0,0,-2.0895,-2.09,-2.0888,-2.0936,-2.0945,-2.0944,-2.1004,-2.1015,-2.1025,-2.1033,-2.1075,-2.1083,-2.1122,-2.1116,-2.1119,-2.1094,-2.1156,-2.1102,-2.1098,-2.1095,-2.1017,-2.1007,-2.0997,0,0,0,0,0,-2.0892,-2.0862,-2.0887,-2.0892,-2.0931,-2.0942,-2.0947,-2.0993,-2.1023,-2.101,-2.1043,-2.1082,-2.1095,-2.1115,-2.1118,-2.1093,-2.1104,-2.1099,-2.1095,-2.1022,-2.1009,-2.0998,0,0,0,0,0,0,-2.0808,-2.0869,-2.0898,-2.0882,-2.0906,-2.0956,-2.0942,-2.0978,-2.0993,-2.1,-2.1055,-2.1064,-2.105,-2.1071,-2.1093,-2.1062,-2.1105,-2.1101,-2.1048,-2.1036,-2.1026,-2.1021,-2.1157,0,0,0,0,0,-2.0788,-2.0793,-2.0845,-2.0826,-2.0837,-2.0887,-2.0894,-2.0927,-2.0954,-2.0965,-2.0997,-2.102,-2.103,-2.1035,-2.1046,-2.1022,-2.1031,-2.1006,-2.0996,-2.0988,-2.0983,-2.0971,-2.096,-2.1078,-2.1078,-2.1078,0,0,-2.0745,-2.0779,-2.0779,-2.081,-2.0833,-2.0836,-2.0895,-2.0896,-2.0898,-2.0964,-2.096,-2.0984,-2.1015,-2.0999,-2.0993,-2.1016,-2.0953,-2.0982,-2.0975,-2.0974,-2.0965,-2.0954,-2.0944,-2.1075,-2.1075,-2.1076,0,0,-2.0669,-2.0696,-2.0683,-2.0706,-2.074,-2.0774,-2.0771,-2.0816,-2.0835,-2.0832,-2.0882,-2.0885,-2.09,-2.092,-2.0931,-2.0865,-2.0901,-2.0867,-2.0814,-2.0802,-2.0793,-2.0785,-2.076,-2.075,-2.0863,-2.0862,-2.0862,0,-2.0612,-2.0619,-2.0671,-2.0669,-2.0681,-2.0744,-2.073,-2.0749,-2.0785,-2.0791,-2.0817,-2.0838,-2.0862,-2.0852,-2.0836,-2.0844,-2.0841,-2.0861,-2.079,-2.0783,-2.0776,-2.0753,-2.0743,-2.0858,-2.0858,-2.0859,-2.0859,0,-2.0546,-2.0551,-2.0536,-2.057,-2.0581,-2.0573,-2.0623,-2.0628,-2.0661,-2.0691,-2.0687,-2.072,-2.0739,-2.074,-2.0771,-2.0733,-2.0746,-2.078,-2.0824,-2.0759,-2.0738,-2.073,-2.0851,-2.0853,-2.0854,-2.0856,0,0,-2.0416,-2.0482,-2.0475,-2.0492,-2.0536,-2.0539,-2.0534,-2.0555,-2.0557,-2.058,-2.0576,-2.0589,-2.0621,-2.0634,-2.0669,-2.0658,-2.0602,-2.0694,-2.0696,-2.0674,-2.0562,-2.0534,-2.0523,-2.0628,-2.0627,-2.0625,-2.0559,0,-2.0347,-2.0343,-2.039,-2.0372,-2.0377,-2.0437,-2.0433,-2.0458,-2.0488,-2.0495,-2.0527,-2.0534,-2.0577,-2.0585,-2.0578,-2.0611,-2.058,-2.0617,-2.0623,-2.0623,-2.0612,-2.0512,-2.0483,-2.0419,-2.0551,-2.055,-2.0549,0,-2.0265,-2.0285,-2.0268,-2.0313,-2.0317,-2.0312,-2.0334,-2.0341,-2.0372,-2.0394,-2.0409,-2.045,-2.0448,-2.0491,-2.0488,-2.0511,-2.0518,-2.0534,-2.0533,-2.0533,-2.058,-2.0508,-2.0399,-2.0389,-2.0536,-2.0537,-2.0538,0,-2.017,-2.0193,-2.0186,-2.0198,-2.0251,-2.0246,-2.0268,-2.0301,-2.031,-2.033,-2.0336,-2.0355,-2.0364,-2.0378,-2.0422,-2.045,-2.0413,-2.046,-2.043,-2.0429,-2.0417,-2.0417,-2.0305,-2.0424,-2.0425,-2.0425,-2.0425,0,-2.0086,-2.0073,-2.0144,-2.0139,-2.0126,-2.0181,-2.0166,-2.0194,-2.0223,-2.0224,-2.0278,-2.0277,-2.0337,-2.0343,-2.0378,-2.0369,-2.0373,-2.039,-2.0399,-2.0384,-2.0382,-2.0387,-2.0392,-2.0422,-2.0423,-2.0423,-2.0424,0,-1.9976,-2.0024,-2.002,-2.0071,-2.0084,-2.0072,-2.0115,-2.0112,-2.0146,-2.0147,-2.015,-2.0202,-2.0212,-2.0259,-2.0279,-2.0303,-2.0282,-2.0301,-2.0271,-2.0277,-2.0243,-2.0245,-2.013,-2.0117,-2.0245,-2.0244,-2.0243,0,-1.9919,-1.991,-1.9961,-1.9967,-1.9986,-1.9994,-2.0004,-2.0059,-2.0067,-2.0102,-2.0095,-2.011,-2.0124,-2.0137,-2.0176,-2.0193,-2.0212,-2.017,-2.0214,-2.0199,-2.0209,-2.0208,-2.0207,-2.016,-2.0158,-2.0157,-2.0156,0,-1.9811,-1.9835,-1.9849,-1.987,-1.9881,-1.99,-1.9923,-1.9924,-1.9984,-1.9991,-2.0003,-2.0014,-2.0036,-2.005,-2.0073,-2.0095,-2.0134,-2.0142,-2.0135,-2.0119,-2.0101,-2.0109,-2.0243,-2.0144,-2.0145,-2.0146,-2.0146,-2.0147,-1.9725,-1.972,-1.9755,-1.9768,-1.9791,-1.9811,-1.9811,-1.9846,-1.9857,-1.988,-1.9912,-1.9919,-1.9951,-1.9986,-2.0005,-2.0011,-2.0034,-2.0024,-2.0022,-2.0018,-2.001,-2.0102,-2.0016,-2.0016,-2.0017,-2.0017,-2.0017,0,-1.9618,-1.9645,-1.9656,-1.9687,-1.9697,-1.9736,-1.9763,-1.9769,-1.9775,-1.9802,-1.9816,-1.9829,-1.9843,-1.9884,-1.9902,-1.9899,-1.9918,-1.9902,-1.9901,-1.9905,-1.999,-1.9993,-1.9886,-1.9886,-1.9886,-1.9886,-1.9886,-1.9886,-1.9564,-1.9558,-1.9586,-1.9592,-1.9619,-1.9627,-1.9639,-1.9658,-1.9679,-1.9692,-1.9705,-1.9732,-1.9765,-1.9786,-1.98,-1.9812,-1.9815,-1.9792,-1.981,-1.9887,-1.9899,-1.9911,-1.9914,-1.9793,-1.9793,-1.9725,-1.9724,-1.9724]}]]